Skip Page Navigation
NASA JPL Caltech
NASA Logo - Jet Propulsion Laboratory + View the NASA Portal
+ Center for Near-Earth Object Studies
JPL Home Earth Solar System Stars & Galaxies Technology
JPL Solar System Dynamics
BODIES ORBITS EPHEMERIDES TOOLS PHYSICAL DATA DISCOVERY FAQ SITE MAP
IMPORTANT: The SSD Announcement email list is now available. Major changes are coming in the near future, including possible hostname and/or URL changes. To be notified of such changes, subscribe to this email list.

Please visit this page for more details.


JPL Small-Body Database Browser
Search: [ help ]  
359439 (2010 MC69)
Classification: Main-belt Asteroid          SPK-ID: 2359439
Ephemeris | Orbit Diagram | Orbital Elements | Mission Design | Physical Parameters | Discovery Circumstances | Close-Approach Data ]

[ show orbit diagram ]
Orbital Elements at Epoch 2458600.5 (2019-Apr-27.0) TDB
Reference: JPL 15 (heliocentric ecliptic J2000)
 Element Value Uncertainty (1-sigma)   Units 
e .1181797998299634 6.3256e-08  
a 3.111061585945603 5.5425e-08 au
q 2.743396950459863 1.9615e-07 au
i 11.4784412537453 6.5979e-06 deg
node 199.1991295676711 3.043e-05 deg
peri 137.096993497235 3.8183e-05 deg
M 224.5700300709182 2.5484e-05 deg
tp 2459354.503949517452
(2021-May-20.00394952)
0.00015009 TDB
period 2004.293598886743
5.49
5.3561e-05
1.466e-07
d
yr
n .1796144038976909 4.7999e-09 deg/d
Q 3.478726221431343 6.1975e-08 au
  Orbit Determination Parameters
   # obs. used (total)      233  
   data-arc span      7101 days (19.44 yr)  
   first obs. used      1999-11-15  
   last obs. used      2019-04-25  
   planetary ephem.      DE431  
   SB-pert. ephem.      SB431-N16  
   condition code      0  
   norm. resid. RMS      .59738  
   source      ORB  
   producer      Otto Matic  
   solution date      2019-Jul-14 13:38:23  

Additional Information
 Earth MOID = 1.74749 au 
 Jupiter MOID = 2.03712 au 
 T_jup = 3.177 
[ show covariance matrix ]

Ephemeris | Orbit Diagram | Orbital Elements | Mission Design | Physical Parameters | Discovery Circumstances | Close-Approach Data ]

Physical Parameter Table
Parameter Symbol Value Units Sigma Reference Notes
absolute magnitude H 15.9   n/a MPO437517  
diameter diameter 4.524 km 0.231 urn:nasa:pds:neowise_diameters_albedos::2.0[mainbelt] (http://adsabs.harvard.edu/abs/2011ApJ...741...68M)  
geometric albedo albedo 0.034   0.008 urn:nasa:pds:neowise_diameters_albedos::2.0[mainbelt] (http://adsabs.harvard.edu/abs/2011ApJ...741...68M)  

359439 (2010 MC69)          Discovered 2008-Mar-08 by Spacewatch at Kitt Peak
Reference: 20130327/Numbers.arcLast Updated: 2013-03-29

[ show close-approach data ]
Alternate Designations
 2010 MC69 = 2010 SV38 
Ephemeris | Orbit Diagram | Orbital Elements | Mission Design | Physical Parameters | Discovery Circumstances | Close-Approach Data ]
ABOUT SSD CREDITS/AWARDS PRIVACY/COPYRIGHT GLOSSARY LINKS
FirstGov
(server date/time)  
NASA Home Page
Site Manager:   Ryan S. Park
Webmaster  Alan B. Chamberlin